Location: Bidart
(43.4376°N, 1.5913°W)
Time: 17:46:01
(UTC+00:00)

USA 229 DEB - Pass Details

Date: 24 April 2026
Orbit: 844 x 1364 km, 63.4° (Epoch: 10 January)

Event Time Altitude Azimuth Distance (km) Brightness Sun altitude
Rises 00:14:10 0° 322° (NW) 4,025 7.3 -33.7°
Reaches altitude 10° 00:16:46 10° 320° (NW) 3,129 6.6 -33.7°
Enters shadow 00:23:37 69° 278° (W) 1,362 4.1 -33.6°
